Tracking 30160 objects as of 13-Feb-2025
HD Live streaming from Space Station
objects crossing your sky now

STARLINK-4318

Track STARLINK-4318 now!
10-day predictions
STARLINK-4318 is classified as:


NORAD ID: 53086
Int'l Code: 2022-077AV
Perigee: 568.8 km
Apogee: 571.5 km
Inclination: 97.7 °
Period: 95.9 minutes
Semi major axis: 6941 km
RCS: Unknown
Launch date: July 11, 2022
Source: United States (US)
Launch site: AIR FORCE WESTERN TEST RANGE (AFWTR)
Your satellite tracking list
Your tracking list is empty




NASA's NSSDC Master Catalog

Two Line Element Set (TLE):
1 53086U 22077AV  25044.46701891  .00000375  00000-0  33777-4 0  9997
2 53086  97.6551 227.8498 0001906 198.7905 161.3249 15.01261313142525
Source of the keplerian elements: AFSPC